Hourly Data Report for March 06, 2006

TORONTO CITY
ONTARIO

43°40'00.000" N
79°24'00.000" W
112.50 m
6158355
71508
XTO

Download Data

Hourly Data (March 2006)
Hourly Data Report for March 6, 2006
TIME
LST
Temp Definition
°C
Dew Point Definition
°C
Rel Hum Definition
%
Precip. Amount Definition
mm

Wind Dir Definition
10's deg

Wind Spd Definition
km/h
Visibility Definition
km
Stn Press Definition
kPa
Hmdx Definition


Wind Chill Definition


Weather Definition


00:00 -1.7 -7.8 63   LegendMM LegendMM   100.72     LegendNANA
01:00 -2.1 -7.7 65   LegendMM LegendMM   100.65     LegendNANA
02:00 -2.2 -7.6 66   LegendMM LegendMM   100.64     LegendNANA
03:00 -2.6 -7.5 69   LegendMM LegendMM   100.60     LegendNANA
04:00 -2.4 -6.5 73   LegendMM LegendMM   100.57     LegendNANA
05:00 -2.8 -6.3 77   LegendMM LegendMM   100.59     LegendNANA
06:00 -3.3 -6.9 76   LegendMM LegendMM   100.63     LegendNANA
07:00 -3.6 -8.1 71   LegendMM LegendMM   100.66     LegendNANA
08:00 -3.4 -9.4 63   LegendMM LegendMM   100.66     LegendNANA
09:00 -2.5 -11.8 49   LegendMM LegendMM   100.68     LegendNANA
10:00 -1.2 -12.4 42   LegendMM LegendMM   100.68     LegendNANA
11:00 -0.1 -12.2 40   LegendMM LegendMM   100.65     LegendNANA
12:00 0.1 -12.7 37   LegendMM LegendMM   100.63     LegendNANA
13:00 0.8 -12.3 37   LegendMM LegendMM   100.59     LegendNANA
14:00 1.5 -11.5 37   LegendMM LegendMM   100.53     LegendNANA
15:00 1.3 -11.9 37   LegendMM LegendMM   100.52     LegendNANA
16:00 0.7 -11.3 40   LegendMM LegendMM   100.55     LegendNANA
17:00 0.6 -9.9 45   LegendMM LegendMM   100.57     LegendNANA
18:00 -0.9 -9.8 51   LegendMM LegendMM   100.65     LegendNANA
19:00 -1.9 -10.1 53   LegendMM LegendMM   100.72     LegendNANA
20:00 -2.1 -9.4 57   LegendMM LegendMM   100.76     LegendNANA
21:00 -2.1 -9.1 59   LegendMM LegendMM   100.81     LegendNANA
22:00 -2.0 -8.2 62   LegendMM LegendMM   100.89     LegendNANA
23:00 -1.0 -10.6 48   LegendMM LegendMM   100.93     LegendNANA

Notes on Data Quality.

Legend

  • E = Estimated
  • M = Missing
  • NA = Not Available*
  • [empty] = Indicates an unobserved value
Date modified: